Simultaneous Nadir Overpasses (SNOs) Predictions

Prediction of SNOs between LANDSAT-8 and NOAA-19 Satellite Orbit:

Table of predicted SNOs for the next 14.0 days since TLE Epoch: 2/19/2016
Index Date (LANDSAT-8) Time (LANDSAT-8) Lat,Lon (LANDSAT-8) SZA (LANDSAT-8 ) Date (NOAA-19) Time (NOAA-19) Lat,Lon (NOAA-19) SZA (NOAA-19 ) Distance(km) Time Diff (sec)
1 02/21/2016 02:49:34 74.90, 142.77 85.62 02/21/2016 02:48:29 74.98, 139.36 85.70 98.84 65
2 02/21/2016 03:39:15 -74.21, -51.28 95.09 02/21/2016 03:39:08 -74.21, -51.21 95.09 2.19 7
3 02/23/2016 08:23:31 -74.30,-122.15 95.80 02/23/2016 08:22:18 -74.32,-122.24 95.78 3.32 73
4 02/23/2016 09:12:58 74.23, 45.31 84.11 02/23/2016 09:13:23 74.22, 45.27 84.10 1.87 25
5 02/25/2016 13:57:15 74.25, -25.70 83.33 02/25/2016 13:56:32 74.28, -25.63 83.35 3.37 43
6 02/25/2016 14:46:44 -74.18, 141.77 96.76 02/25/2016 14:47:25 -74.19, 141.88 96.76 3.45 41
7 02/27/2016 19:31:00 -74.25, 70.86 97.51 02/27/2016 19:30:34 -74.25, 70.96 97.51 3.14 26
8 02/27/2016 20:20:27 74.17,-121.69 82.40 02/27/2016 20:21:40 74.19,-121.65 82.42 2.60 73
9 03/01/2016 01:04:42 74.28, 167.49 81.68 03/01/2016 01:04:49 74.26, 167.42 81.66 2.84 7
10 03/01/2016 01:54:24 -73.54, -26.52 99.08 03/01/2016 01:55:29 -73.55, -23.48 99.06 95.81 65
11 03/03/2016 05:48:58 74.33, 96.53 80.89 03/03/2016 05:47:58 74.35, 96.46 80.91 2.67 60
12 03/03/2016 06:38:27 -74.27, -95.98 99.19 03/03/2016 06:38:51 -74.25, -96.01 99.21 2.38 24




NCC Satellite Simultaneous Nadir Overpasses (SNOs) Prediction Service
